PDT,Max TemperatureF,Mean TemperatureF,Min TemperatureF,Max Dew PointF,MeanDew PointF,Min DewpointF,Max Humidity, Mean Humidity, Min Humidity, Max Sea Level PressureIn, Mean Sea Level PressureIn, Min Sea Level PressureIn, Max VisibilityMiles, Mean VisibilityMiles, Min VisibilityMiles, Max Wind SpeedMPH, Mean Wind SpeedMPH, Max Gust SpeedMPH,PrecipitationIn, CloudCover, Events, WindDirDegrees
2012-8-1,94,76,57,45,37,31,47,30,12,30.08,30.01,29.94,10,10,10,15,5,32,0.00,0,,259
2012-8-2,89,74,58,45,41,35,52,35,18,30.02,29.95,29.90,10,10,10,23,7,28,0.00,1,,301
2012-8-3,88,76,64,43,39,33,43,29,15,30.04,29.99,29.93,10,10,10,14,6,24,0.00,1,,287
2012-8-4,96,77,57,48,41,34,56,34,11,30.04,29.95,29.86,10,10,10,9,2,21,0.00,0,,135
2012-8-5,103,84,64,51,44,40,56,34,12,29.96,29.90,29.82,10,10,10,9,2,15,0.00,0,,100
2012-8-6,101,85,68,55,50,44,53,35,16,30.05,29.98,29.89,10,10,10,13,5,17,0.00,0,,81
2012-8-7,107,88,69,57,51,44,66,40,13,30.01,29.89,29.76,10,10,10,12,5,18,0.00,0,,86
2012-8-8,96,82,67,56,44,30,49,30,11,30.04,29.94,29.80,10,10,10,17,4,22,0.00,0,,348
2012-8-9,99,79,59,46,39,34,48,29,10,30.09,29.99,29.87,10,10,10,13,4,26,0.00,0,,290
2012-8-10,95,79,62,47,40,36,46,29,12,29.95,29.89,29.83,10,10,10,12,5,16,0.00,0,,260
2012-8-11,98,79,59,46,37,29,43,26,9,30.01,29.94,29.88,10,10,10,9,3,13,0.00,0,,37
2012-8-12,102,82,62,47,39,33,52,31,10,29.98,29.89,29.79,10,10,10,9,3,10,0.00,0,,136
2012-8-13,102,83,63,48,41,36,49,30,11,29.94,29.86,29.79,10,10,10,12,3,15,0.00,0,,6
2012-8-14,99,81,63,48,43,38,47,30,13,29.89,29.79,29.68,10,10,7,18,4,25,0.00,0,,20
2012-8-15,95,80,65,52,49,44,49,34,19,29.90,29.84,29.75,10,10,10,16,4,18,0.00,0,,8
2012-8-16,94,79,64,50,47,39,56,38,19,29.97,29.92,29.88,10,10,10,13,4,,0.00,0,,253
2012-8-17,98,80,62,48,40,33,52,32,11,30.04,29.96,29.89,10,10,10,10,3,12,0.00,0,,143
2012-8-18,102,83,64,48,42,34,52,32,11,29.98,29.87,29.77,10,10,7,9,3,,0.00,0,,253
2012-8-19,102,85,68,50,45,38,44,28,11,29.91,29.82,29.73,10,10,10,10,3,14,0.00,0,,303
2012-8-20,99,85,70,53,44,37,47,30,13,29.92,29.85,29.79,10,10,10,17,4,22,0.00,0,,258
2012-8-21,94,81,67,51,46,40,44,32,20,29.87,29.80,29.74,10,10,10,25,5,30,T,1,Rain,230
2012-8-22,85,72,58,45,41,34,57,37,16,29.99,29.91,29.83,10,10,10,13,5,18,0.00,0,,274
2012-8-23,86,71,55,43,35,21,55,34,12,29.95,29.88,29.79,10,10,10,21,7,28,0.00,0,,329
2012-8-24,77,66,55,40,35,30,55,37,19,30.10,30.03,29.91,10,10,10,23,5,30,0.00,0,,283
2012-8-25,89,69,48,39,32,22,66,38,9,29.99,29.87,29.73,10,10,8,8,3,12,0.00,0,,98
2012-8-26,93,73,53,40,35,26,47,30,12,29.77,29.73,29.68,10,9,6,9,3,14,0.00,0,,107
2012-8-27,89,76,62,41,39,37,37,28,18,30.01,29.92,29.78,10,10,10,12,4,23,0.00,0,,249
2012-8-28,89,73,57,46,43,38,57,40,22,29.98,29.90,29.81,10,10,9,22,6,29,0.00,1,,296
2012-8-29,79,69,59,43,40,37,51,37,23,30.10,30.02,29.96,10,10,10,23,7,30,0.00,1,,287
2012-8-30,86,69,51,42,38,36,63,40,17,30.03,29.91,29.78,10,10,10,9,2,14,0.00,0,,169
2012-8-31,88,71,53,43,39,34,59,37,15,29.84,29.78,29.71,10,10,10,14,4,17,0.00,0,,283